Torna al catalogo

SCOUT G-1 DEB

AttivoPO
NORAD 21532·DEBRIS·🇺🇸 United States

Lanciato Jun 29, 1991 da Vandenberg Space Force Base

Loading…

Prossimi Passaggi (prossime 24 ore)

TLE

AggiornatoSource: Space-Track

Epoca: Sep 14, 2026, 02:52 UTC

1 21532U 91045D   26257.11970089  .00000653  00000-0  21129-3 0  9991
2 21532  89.5732 194.6921 0062941 343.5807  78.4525 14.37039916835889

Traccia SCOUT G-1 DEB in tempo reale con AllMySat

Download on the App Store